User: anonymous   Login
Location: Churchill
(58.7670°N, 94.1670°W)
Time: 14:26:56
(UTC-06:00)
Language:

Cosmos 2142 Rocket - Orbit

View from above orbital plane
View from above orbital plane
View from above satellite
View from above satellite

Ground track
Ground track

The orbit data is extracted from the following two-line orbital elements,

1 21231U 91029B   18021.87418285 +.00000050 +00000-0 +35780-4 0  9997
2 21231 082.9541 306.6739 0034899 341.3541 050.1966 13.75765222343599
Epoch (UTC): 21 January 2018 20:58:49
Eccentricity: 0.0034899
inclination: 82.9541°
perigee height: 953 km
apogee height: 1004 km
right ascension of ascending node: 306.6739°
argument of perigee: 341.3541°
revolutions per day: 13.75765222
mean anomaly at epoch: 50.1966°
orbit number at epoch: 34359

The dashed part of the orbit path shows where the satellite is in the earth's shadow,  

DLR